Meteo Giornale » Osservazioni meteo Repubblica Ceca » Praha-Ruzyne

ore: 16:30 - Osservazioni Meteo Praha-Ruzyne
Lat. 50° 6' N Lon. 14° 15' E Alt. 365 metri s.l.m.

sereno Europe/Prague

-3 °C

Sereno

Temp. 24 Ore

-12 °C

-3 °C

Nord/Nord-Est

7.4 Km/h

Dew point -7 °C

Umidità 73 %

Visibilità  8 Km

Il sole sorge alle ore 07:46

Il sole tramonta alle ore 16:42

Data e Ora Cielo e Fenomeni T °C DP °C Um. % Pres. hPa Vis. km Vento km/h
Oggi h: 16:30 sereno Sereno -3 -7 73 1025 8 N/NE 7.4
Oggi h: 16:00 sereno Sereno -3 -7 73 1026 9 NE 7.4
Oggi h: 15:30 sereno Sereno -3 -7 73 1026 9 E/NE 13
Oggi h: 15:00 sereno Sereno -3 -6 79 1026 7 NE 9.3
Oggi h: 14:30 sereno Sereno -4 -5 92 1026 7 E/NE 11.1
Oggi h: 14:10 sereno Sereno -4 -5 92 1026 3 N/NE 9.3
Oggi h: 14:00 foschia Foschia -5 -6 92 1026 4 N 9.3
Oggi h: 13:30 foschia Foschia -5 -6 92 1027 3 N 5.5
Oggi h: 13:00 foschia Foschia -6 -7 92 1027 3 N 5.5
Oggi h: 12:30 foschia Foschia -6 -7 92 1027 3 NE 7.4
Oggi h: 12:00 foschia Foschia -8 -9 92 1028 0.5 N 5.5
Oggi h: 11:46 nebbia Nebbia Congelantesi -8 -10 85 1028 0.2 N 5.5
Oggi h: 11:30 nebbia Nebbia Congelantesi -9 -10 92 1028 0.5 N 5.5
Oggi h: 11:14 nebbia Nebbia Congelantesi -8 -9 92 1028 0.35 N 3.7
Oggi h: 11:00 nebbia Nebbia Congelantesi -9 -10 92 1029 0.3 N 7.4
Oggi h: 10:37 nebbia Nebbia Congelantesi -9 -11 85 1029 0.15 N 5.5
Oggi h: 10:30 nebbia Nebbia Congelantesi -10 -11 92 1029 0.15 N 5.5
Oggi h: 10:00 nebbia Nebbia Congelantesi -10 -11 92 1029 0.15 N 5.5
Oggi h: 09:30 nebbia Nebbia Congelantesi -11 -12 92 1029 0.1 N 3.7
Oggi h: 09:19 nebbia Nebbia Congelantesi -11 -12 92 1029 0.1 N 3.7
Oggi h: 09:00 nebbia Nebbia Congelantesi -11 -12 92 1029 0.1 N 5.5
Oggi h: 08:30 nebbia Nebbia Congelantesi -11 -12 92 1029 0.1 N 3.7
Oggi h: 08:00 nebbia Nebbia Congelantesi -11 -12 92 1029 0.15 N 5.5
Oggi h: 07:30 nebbia Nebbia Congelantesi -10 -11 92 1029 0.15 N 5.5
Oggi h: 07:00 nebbia Nebbia Congelantesi -11 -12 92 1029 0.15 N 5.5
Oggi h: 06:30 nebbia Nebbia Congelantesi -11 -13 85 1029 0.15 N 3.7
Oggi h: 06:00 nebbia Nebbia Congelantesi -12 -13 92 1029 0.15 N 5.5
Oggi h: 05:30 nebbia Nebbia Congelantesi -12 -13 92 1029 0.15 N 5.5
Oggi h: 05:00 nebbia Nebbia Congelantesi -11 -12 92 1029 0.15 N 5.5
Oggi h: 04:30 nebbia Nebbia Congelantesi -11 -12 92 1029 0.15 N 3.7
Oggi h: 04:00 nebbia Nebbia Congelantesi -11 -12 92 1029 0.2 N 3.7
Oggi h: 03:51 nebbia Nebbia Congelantesi -11 -12 92 1029 0.2 N 3.7
Oggi h: 03:47 nebbia Nebbia Congelantesi -11 -12 92 1029 0.15 N 3.7
Oggi h: 03:30 nebbia Nebbia Congelantesi -11 -12 92 1029 0.2 N 3.7
Oggi h: 03:06 nebbia Nebbia Congelantesi -10 -11 92 1029 0.25 N 3.7
Oggi h: 03:00 nebbia Nebbia Congelantesi -10 -11 92 1029 0.25 N 3.7
Oggi h: 02:51 nebbia Nebbia Congelantesi -10 -11 92 1029 0.3 N 3.7
Oggi h: 02:42 nebbia NebbiaParziale -11 -12 92 1029 0.3 N 0
Oggi h: 02:41 nebbia NebbiaParziale -10 -11 92 1029 0.3 N 1.8
Oggi h: 02:30 nebbia Banco di Nebbia -9 -10 92 1030 0.3 N 1.8
Oggi h: 02:00 nebbia Nebbia Congelantesi -8 -9 92 1030 0.7 N 3.7
Oggi h: 01:49 nebbia NebbiaParziale -8 -9 92 1030 0.5 N 5.5
Oggi h: 01:30 foschia Foschia -9 -10 92 1030 1 N 1.8
Oggi h: 01:00 foschia Foschia -8 -9 92 1030 2 N 3.7
Oggi h: 00:30 foschia Foschia -8 -9 92 1030 3 N 7.4
Oggi h: 00:00 foschia Foschia -8 -9 92 1030 3 N 5.5
Ieri h: 23:30 foschia Foschia -8 -9 92 1030 3 N 1.8
Ieri h: 23:00 foschia Foschia -8 -9 92 1030 3 N 5.5
Ieri h: 22:30 foschia Foschia -8 -9 92 1030 3 N 5.5
Ieri h: 22:00 foschia Foschia -8 -8 100 1030 2 N 3.7
Ieri h: 21:30 foschia Foschia -8 -8 100 1030 4 N 7.4
Ieri h: 21:00 foschia Foschia -8 -8 100 1030 4 N/NE 7.4
Ieri h: 20:30 foschia Foschia -7 -9 85 1030 4 N 7.4
Ieri h: 20:00 foschia Foschia -7 -8 92 1030 4 N 3.7
Ieri h: 19:30 foschia Foschia -7 -9 85 1030 4 N 3.7
Ieri h: 19:00 foschia Foschia -7 -9 85 1030 5 N 3.7
Ieri h: 18:30 foschia Foschia -7 -9 85 1030 5 N 5.5
Ieri h: 18:00 foschia Foschia -6 -9 79 1030 5 N 1.8
Ieri h: 17:30 sereno Sereno -6 -9 79 1030 6 N 5.5
Ieri h: 17:21 sereno Sereno -6 -10 73 1030 6 N 5.5
Ieri h: 17:00 foschia Foschia -5 -9 73 1030 5 N 7.4